Regional Weather Roundup
Issued by NWS

Home | Current Version | Previous Version | Graphics & Text | Print | Product List | Glossary On
Versions: 1 2 3 4 5 6 7 8 9 10 11 12 13 14 15 16 17 18 19 20 21 22 23 24 25 26 27 28 29 30 31 32 33 34 35 36 37 38 39 40 41 42 43 44 45 46 47 48 49 50
294
ASUS45 KTFX 231710
RWRMT
MONTANA REGIONAL WEATHER ROUNDUP
NATIONAL WEATHER SERVICE GREAT FALLS MT
1000 AM MST THU FEB 23 2017

NOTE: "FAIR" INDICATES FEW OR NO CLOUDS BELOW 12000 FEET WITH NO
SIGNIFICANT WEATHER AND/OR OBSTRUCTIONS TO VISIBILITY.

MTZ001>007-043-231800-
WEST OF THE DIVIDE

CITY           SKY/WX    TMP DP  RH WIND       PRES   REMARKS
KALISPELL      PTSUNNY   30  21  69 N7        29.98R WCI  23
MISSOULA       CLOUDY    31  26  82 NW8       29.95S WCI  23
BUTTE          CLOUDY    24  18  77 S3        29.81S
MULLAN PASS    CLOUDY    23  17  78 N3        29.85R
ANACONDA         N/A     27  16  63 N12       29.84S WCI  16
DEER LODGE       N/A     28  16  59 N12G18    29.90R WCI  18
EUREKA           N/A     27  21  80 CALM      30.05R
HAMILTON         N/A     30  23  74 N16       29.90S WCI  19
LIBBY            N/A     27  21  80 CALM      30.04S
PLAINS           N/A     26  19  74 CALM      30.01R
RONAN            N/A     29  21  71 N3        30.01R
$$

MTZ008-052>055-231800-
SOUTHWEST MONTANA

CITY           SKY/WX    TMP DP  RH WIND       PRES   REMARKS
BOZEMAN        CLOUDY    32  20  61 S3        29.83S
DILLON         CLOUDY    27  18  69 NE21G30   29.75F WCI  13
W YELLOWSTONE  CLOUDY    23  10  58 NE16G24   29.68S WCI  10
ENNIS          CLOUDY    27  21  80 NW17G26   29.79S WCI  14
$$

MTZ009-010-012-014-046-048-049-054-231800-
EAST SLOPES AND CENTRAL MONTANA

CITY           SKY/WX    TMP DP  RH WIND       PRES   REMARKS
CUT BANK       LGT SNOW  21  16  81 NE9       30.01S WCI  11
GREAT FALLS    CLOUDY    25  22  88 NE12      29.98R WCI  14
MALMSTROM AFB  SNOWSHWR  24  25 100 NE12      29.99S WCI  13
HELENA         CLOUDY    31  22  69 N12       29.91S WCI  22
AUGUSTA        LGT SNOW  22  22 100 N17       29.95S WCI   8
BOWMANS CRNR   LGT SNOW  23  23  98 NE15      29.92R WCI  10
CHOTEAU          N/A     23  21  93 N14       30.00S FOG     WCI  11
CONRAD           N/A     24  23  96 N6        30.02S WCI  17
POWER          CLOUDY    23  23  98 NE12      29.97S WCI  12
RAYNESFORD     PTSUNNY   26  21  80 SE10      29.95S WCI  16
ULM            CLOUDY    26  25  94 MISG      29.98R
$$

MTZ011-013-016-021-045-047-050-051-231800-
NORTH CENTRAL MONTANA

CITY           SKY/WX    TMP DP  RH WIND       PRES   REMARKS
HAVRE          LGT SNOW  24  21  88 NE15      30.06R FOG     WCI  11
LEWISTOWN      CLOUDY    24  19  81 NE7       29.93F WCI  16
N BAR RANCH    CLOUDY    21  19  93 NE5       29.95R
CHINOOK          N/A     27  21  80 NE3       30.07S
DENTON         PTSUNNY   25  23  93 E10       29.94S WCI  15
FORT BENTON      N/A     27  21  80 MISG      30.04S
GEYSER         FLURRIES  24  21  89 NE7       29.95S WCI  16
GRASS RANGE    CLOUDY    23  22  94 N5        29.93S
JUDITH GAP     LGT SNOW  21  19  93 N20       29.88F FOG     WCI   6
ROY            PTSUNNY   24  24  98 MISG      29.97S
STANFORD       FLURRIES  22  22  98 N6        29.93F WCI  15
WINIFRED       PTSUNNY   24  22  91 E10       29.96S WCI  14
$$

MTZ017>020-022>027-061-062-231800-
NORTHEAST MONTANA

CITY           SKY/WX    TMP DP  RH WIND       PRES   REMARKS
GLASGOW        SUNNY     29  24  82 NE16      30.04R WCI  17
JORDAN           N/A     28  25  88 N9        30.00F WCI  19
SIDNEY         CLOUDY    29  26  89 N9        30.06R WCI  20
WOLF POINT     CLOUDY    30  24  78 E16       30.07R WCI  19
PLENTYWOOD       N/A     21  18  86 NE13      30.07R WCI   9
POPLAR           N/A     27  21  80 NE18      30.07R WCI  13
SCOBEY           N/A     25  15  65 NE12      30.04R WCI  14
$$

MTZ028>42-056>058-231800-
SOUTHCENTRAL AND SOUTHEAST MONTANA

CITY           SKY/WX    TMP DP  RH WIND       PRES   REMARKS
BAKER          CLOUDY    28  24  85 NE15      29.96S WCI  16
BILLINGS       CLOUDY    27  21  78 NE15      29.91S WCI  15
LIVINGSTON     LGT SNOW  26  22  84 E14       29.83S FOG     WCI  14
MILES CITY     CLOUDY    30  25  81 NE13      29.97S WCI  20
BIG TIMBER     FOG       27  25  93 NE9G15    29.89F VSB 1/2 WCI  17
EKALAKA          N/A     25  21  84 NE10      29.89S WCI  15
FORSYTH          N/A     28  23  80 NE8       29.96S WCI  20
HARLOWTON      CLOUDY    25  21  86 NE14G21   29.90R WCI  13
LAUREL           N/A     27  20  75 CALM      29.89S
ROUNDUP          N/A     27  18  69 NE13      29.87R WCI  16
$$

REGIONAL REPORTS...DAKOTAS

CITY           SKY/WX    TMP DP  RH WIND       PRES   REMARKS
WILLISTON      CLOUDY    26  23  88 N14       30.08R WCI  14
MINOT          CLOUDY    23  17  78 N13       30.09R WCI  11
DICKINSON      LGT SNOW  28  26  92 NE8       29.96F FOG     WCI  20
BEACH            N/A    N/A N/A N/A MISG        N/A
CROSBY         PTSUNNY   23  23 100 NE9       30.11S WCI  13
TIOGA          CLOUDY    23  23 100 NE14      30.07R WCI  11
WATFORD CITY   CLOUDY    27  27 100 E14       30.04S WCI  15
BISMARCK       CLOUDY    31  24  75 E8        30.03S WCI  23
GRAND FORKS    CLOUDY    28  18  66 NE14      30.07R WCI  17
FARGO          CLOUDY    30  22  72 N15G24    30.05R WCI  19
BUFFALO SD       N/A     29  22  75 E15       29.85S WCI  18
RAPID CITY     LGT SNOW  25  22  88 NE9       29.89R VSB 3/4 WCI  15
$$

REGIONAL REPORTS...WYOMING/IDAHO/WASHINGTON

CITY           SKY/WX    TMP DP  RH WIND       PRES   REMARKS
GILLETTE       CLOUDY    27  24  89 NE15G25   29.80R WCI  15
SHERIDAN       CLOUDY    27  24  89 NE9       29.87R WCI  18
BUFFALO WY     LGT SNOW  26  22  84 N16       29.81R VSB 3/4 WCI  14
CODY           CLOUDY    23  18  81 N17G30    29.78R WCI   9
YELLOWSTONE LA   N/A     18   8  65 MISG      29.63F
IDAHO FALLS    LGT SNOW  27  26  96 S10       29.68R VSB 3/4 WCI  17
SALMON         CLOUDY    32  19  59 N9        29.78R WCI  24
BOISE          CLOUDY    31  25  78 NW23G29   29.88R WCI  18
SPOKANE        SNOW      25  23  92 NE3       30.06R VSB 1/4
$$

REGIONAL REPORTS...ALBERTA

CITY           SKY/WX    TMP DP  RH WIND       PRES   REMARKS
EDMONTON       CLOUDY    21  14  73 NE3       30.08S
CALGARY        LGT SNOW  23  19  86 S6        30.02S FOG     WCI  16
LETHBRIDGE     FLURRIES  25  19  80 SE9       30.07S WCI  15
MEDICINE HAT   PTSUNNY   19  18  93 CALM      30.12S
WATERTON GATE    N/A     21  18  86 NE9         N/A  WCI  11
MILK RIVER       N/A     23  18  80 NE10        N/A  WCI  12
$$

REGIONAL REPORTS...SASKATCHEWAN

CITY           SKY/WX    TMP DP  RH WIND       PRES   REMARKS
SWIFT CURRENT  FLURRIES  21  16  79 W6        30.08S WCI  14
REGINA         PTSUNNY   27  16  63 W9        30.09F WCI  17
SASKATOON      MOSUNNY   23  14  68 NW12      30.13R WCI  12
CYPRESS HILLS    N/A     16  10  79 NE7         N/A  WCI   6
VAL MARIE        N/A     23  21  93 NE14        N/A  WCI  11
ROCKGLEN         N/A     21  19  93 NE5         N/A
ASSINIBOIA       N/A     21  16  79 N2          N/A
$$




USA.gov is the U.S. government's official web portal to all federal, state and local government web resources and services.